Wind_Speed
10 9 6 9 13 11 9 7 6 6 14 19 17 19 18 17 20 24 26 29 32 33 37 39 42 44 44 45 47 47 44 41 42 42 44 46 49 51 54 53 55 55 49 47
12 9 11 9 8 9 9 5 2 10 10 14 15 19 16 12 18 19 26 27 32 36 38 40 42 44 46 49 48 50 47 44 41 42 42 42 45 49 53 54 54 55 51 48
8 6 4 5 4 3 2 3 6 7 14 7 11 11 5 11 11 18 22 31 34 37 39 40 40 40 42 47 51 50 52 46 43 40 40 40 41 45 49 53 55 56 53 50
5 4 6 5 3 3 2 8 7 6 11 3 7 5 9 15 19 19 25 29 29 31 31 33 37 41 46 45 47 48 48 46 43 41 41 41 39 41 45 47 44 52 55 53
4 5 5 6 3 4 2 7 7 8 8 12 3 6 9 12 16 18 22 25 28 28 27 27 32 37 38 35 36 39 40 40 38 39 39 39 39 39 42 42 39 43 52 56
4 2 1 5 2 4 7 4 2 3 4 3 4 10 9 11 13 18 18 22 23 25 29 32 33 30 31 25 19 23 30 32 30 32 34 36 36 36 39 40 39 38 42 52
5 4 3 2 5 2 4 5 3 3 2 3 3 9 19 18 18 17 14 16 21 26 28 29 31 29 25 23 15 18 20 23 21 25 27 28 28 29 32 37 37 39 35 40
4 0 2 2 4 0 1 3 1 3 3 3 9 8 8 12 16 11 11 13 17 21 25 28 29 30 28 21 14 10 11 14 18 20 20 23 25 25 26 28 29 32 33 35
1 3 2 2 2 2 2 1 2 4 8 4 8 13 21 22 14 9 9 11 11 15 21 28 30 27 24 19 7 8 8 14 19 19 22 26 27 26 23 20 22 26 34 35
1 1 5 2 4 5 4 4 3 4 3 4 7 10 16 10 9 4 4 8 13 16 20 25 33 33 24 28 15 8 4 5 8 15 16 17 20 19 20 20 21 23 30 34
4 1 3 5 1 3 5 4 5 6 6 2 4 5 9 11 8 8 8 11 13 16 19 20 24 31 22 21 15 9 1 2 4 8 11 16 13 14 16 17 18 23 24 29
6 3 4 2 5 6 9 9 8 5 2 7 7 11 9 11 9 11 13 13 13 15 17 17 20 23 27 14 8 7 5 3 5 7 8 10 11 14 14 16 20 22 24 27
9 5 6 1 3 9 9 11 9 10 14 14 4 7 11 24 22 15 14 14 13 14 15 17 18 18 18 20 14 4 5 4 4 3 8 15 17 20 19 19 22 24 26 30
9 6 8 8 7 8 14 14 17 13 9 14 25 28 26 19 20 18 17 15 14 14 15 15 16 17 15 14 13 16 10 2 4 8 9 13 15 10 11 20 27 18 23 28
10 10 12 17 24 25 24 24 25 31 27 17 21 16 20 23 24 21 20 16 15 14 14 15 15 15 14 13 12 11 10 10 8 6 7 5 3 11 13 15 18 16 21 20
17 11 19 26 15 16 23 32 28 34 35 36 33 32 12 19 18 23 19 18 17 17 17 17 15 14 15 13 11 11 10 9 7 6 7 7 9 11 12 4 5 3 3 4
17 17 16 14 16 25 22 6 15 20 29 31 33 25 22 20 22 25 22 20 19 18 19 18 19 16 14 15 14 13 12 11 11 10 9 9 7 7 6 8 8 9 10 11
20 14 11 16 12 3 5 20 26 22 25 21 23 23 23 26 24 26 27 22 20 19 20 19 18 20 17 15 14 14 14 14 13 13 13 14 13 12 12 11 12 13 13 14
15 14 9 6 6 23 19 5 8 13 12 14 20 21 23 23 28 25 23 21 20 22 21 19 20 19 20 18 16 16 16 16 15 15 16 16 15 14 14 14 14 14 15 14
11 11 13 6 5 5 7 14 20 21 19 16 15 15 15 16 20 19 18 15 16 21 22 20 21 21 21 20 19 19 18 19 18 17 16 17 18 17 17 16 15 14 12 11
11 14 21 22 11 14 19 19 17 6 10 11 14 22 28 30 33 31 24 20 22 26 27 25 23 22 22 21 20 20 19 20 21 20 19 20 20 19 18 16 14 13 13 13
12 8 11 10 10 13 5 10 15 21 26 29 33 34 33 28 27 25 25 26 24 25 26 25 24 24 21 21 21 21 21 22 24 24 23 23 24 23 22 19 17 15 15 16
16 19 12 14 10 21 22 26 31 34 33 35 35 32 29 27 24 22 27 33 28 27 24 25 24 22 22 23 23 23 24 24 24 24 24 24 24 25 23 21 20 18 18 18
27 25 34 33 34 33 37 36 33 32 32 30 27 25 24 24 25 23 26 29 27 28 26 24 23 21 21 21 22 23 24 25 27 26 24 23 23 23 22 22 21 21 21 20
35 35 40 44 40 36 32 28 26 24 24 26 26 25 24 26 28 27 26 22 21 22 23 22 23 23 22 23 24 25 25 25 26 26 26 24 23 22 21 22 22 22 21 21
35 28 33 34 24 27 27 27 25 25 25 26 26 24 26 30 28 27 24 22 21 22 23 23 25 24 24 25 26 26 27 28 28 28 26 25 23 22 21 22 22 22 23 22
Wind_Direction
151 132 155 157 183 189 188 209 257 264 261 288 296 294 302 298 285 285 283 279 281 284 284 283 285 287 285 281 279 275 270 264 260 257 253 250 247 246 246 239 241 243 243 245
131 149 205 202 199 212 224 244 325 286 290 300 302 301 293 277 271 284 282 294 291 289 289 289 286 283 281 279 275 273 269 264 258 258 256 252 250 247 244 241 238 242 241 242
176 201 194 175 196 192 330 270 268 278 288 331 294 310 256 258 260 285 301 303 303 301 299 297 293 290 287 280 272 266 266 262 258 255 255 253 251 250 249 245 238 237 239 238
163 151 155 154 150 163 168 248 271 300 307 239 294 276 205 243 271 288 299 305 305 307 307 306 301 298 296 284 266 259 258 260 256 250 250 252 250 253 253 252 247 241 238 239
129 133 135 85 212 166 276 274 275 288 298 302 323 236 257 252 263 293 310 315 320 321 321 323 329 326 321 303 274 255 254 256 255 249 245 249 251 251 254 255 249 241 238 236
117 108 151 195 238 213 244 305 326 272 283 256 250 221 253 260 281 308 314 323 336 346 348 345 333 331 339 326 287 252 258 255 250 246 246 246 251 252 253 254 253 246 241 237
85 72 98 120 87 9 26 11 216 259 271 236 197 227 267 284 291 303 314 329 2 3 357 344 338 343 342 347 307 282 271 248 241 247 247 248 248 251 256 258 254 249 242 240
76 36 161 99 145 234 76 359 91 279 345 326 286 244 273 274 291 292 311 344 11 10 11 357 350 344 336 331 330 314 274 248 243 251 253 251 251 253 256 264 260 246 241 238
217 166 240 225 213 211 254 312 227 306 302 282 237 260 276 277 276 283 317 327 342 352 8 5 8 5 3 345 309 306 290 257 250 245 253 251 252 257 254 249 245 234 226 228
67 147 245 268 271 249 232 280 241 215 276 270 251 253 253 290 276 289 319 317 346 1 11 6 10 12 23 25 26 288 203 239 216 246 256 265 266 261 258 255 247 232 227 229
47 165 285 286 256 270 246 258 227 234 242 283 309 264 294 307 281 283 286 306 335 360 8 12 10 15 14 11 12 35 9 327 306 285 269 254 257 253 253 253 247 235 230 229
332 300 280 229 262 269 257 271 250 225 226 238 299 281 316 323 280 279 285 304 332 353 2 10 9 13 18 16 8 329 316 276 286 294 268 249 258 261 245 246 240 242 241 240
344 351 340 360 311 294 266 281 272 272 255 258 282 267 326 325 319 287 282 300 322 339 354 3 6 9 12 24 18 360 296 287 291 294 276 262 274 249 250 248 250 248 247 248
326 290 252 259 279 282 270 266 279 263 227 251 244 264 301 324 319 296 289 294 309 326 340 354 359 2 5 13 16 34 33 3 241 234 227 268 282 272 264 254 248 257 249 254
319 304 303 293 304 293 273 266 254 255 261 236 272 247 273 296 301 300 287 293 300 314 326 337 349 352 353 356 3 15 19 29 44 94 118 94 195 225 221 239 262 234 237 250
310 297 309 308 324 309 292 294 276 249 259 271 277 286 325 324 289 296 300 294 301 307 319 327 334 339 341 342 346 350 354 360 9 20 14 2 359 359 21 44 53 43 16 297
273 288 303 292 302 301 296 352 325 265 256 258 262 286 292 288 287 297 298 292 295 302 308 316 322 325 331 330 331 332 334 339 344 348 345 335 331 319 304 292 282 282 280 282
268 262 277 284 315 304 277 301 303 286 278 268 271 280 274 282 283 285 295 295 293 296 300 305 311 315 317 319 319 318 318 320 325 329 333 332 329 324 317 309 300 298 295 295
265 248 261 263 268 289 299 254 327 324 308 263 259 270 280 279 279 289 291 294 297 296 295 301 303 304 306 309 311 309 312 312 314 317 323 326 324 320 313 306 301 295 291 288
261 248 229 233 251 260 270 284 298 305 280 274 274 285 295 301 298 299 286 283 274 282 293 297 296 296 297 301 303 305 309 310 311 312 315 318 319 317 313 309 303 297 293 292
254 252 244 251 254 268 281 283 286 263 299 295 286 295 296 290 298 291 287 278 273 277 283 288 291 292 291 293 295 298 302 306 308 309 312 315 317 316 313 307 301 297 297 301
266 249 234 227 232 259 265 267 271 298 298 296 298 304 305 300 296 293 289 282 279 279 280 281 283 286 286 287 290 295 301 308 311 311 311 314 318 318 315 309 302 300 301 303
256 242 242 234 259 273 284 289 294 297 295 295 301 303 304 302 300 298 284 278 277 276 280 279 279 280 284 290 295 301 303 307 308 308 309 313 316 316 313 306 302 301 302 304
264 264 262 272 277 278 276 281 285 286 287 295 297 303 307 313 316 306 304 284 285 266 275 274 273 275 280 287 293 298 302 307 308 308 307 309 310 309 305 301 298 300 302 306
276 277 277 282 292 295 288 286 284 289 289 292 295 300 304 308 311 310 309 292 282 272 272 271 273 276 279 283 291 296 299 302 303 305 304 306 307 304 301 300 300 303 306 311
289 292 271 290 292 282 282 289 293 287 288 292 293 293 300 306 308 307 303 294 282 273 272 275 274 277 277 281 287 292 296 300 303 304 304 303 303 301 300 300 303 307 311 315
Height
3073 3077 3079 3080 3082 3084 3086 3088 3088 3089 3089 3087 3086 3085 3086 3085 3083 3080 3078 3074 3072 3070 3068 3066 3064 3062 3061 3059 3056 3056 3057 3060 3059 3060 3062 3065 3067 3072 3074 3081 3087 3091 3096 3100
3076 3077 3077 3080 3082 3084 3086 3087 3088 3087 3086 3086 3083 3081 3080 3079 3078 3076 3071 3070 3066 3064 3062 3060 3058 3054 3051 3047 3046 3043 3044 3046 3049 3049 3050 3053 3056 3058 3061 3068 3075 3079 3085 3090
3075 3078 3079 3080 3082 3083 3085 3086 3087 3087 3084 3084 3081 3078 3076 3075 3075 3072 3070 3066 3062 3057 3054 3051 3047 3043 3039 3035 3032 3031 3030 3034 3037 3040 3041 3043 3045 3047 3050 3054 3061 3067 3073 3079
3077 3078 3079 3081 3082 3084 3087 3085 3085 3085 3083 3083 3081 3080 3075 3072 3071 3070 3067 3063 3058 3054 3049 3043 3037 3031 3024 3018 3015 3015 3017 3021 3025 3028 3031 3034 3038 3039 3041 3044 3053 3058 3063 3069
3078 3078 3080 3081 3084 3084 3086 3084 3084 3083 3083 3081 3078 3078 3067 3069 3068 3066 3063 3059 3054 3049 3043 3036 3027 3018 3009 3001 2998 3003 3006 3010 3015 3017 3022 3025 3029 3032 3032 3035 3040 3046 3052 3057
3078 3079 3080 3081 3082 3083 3083 3083 3081 3082 3082 3080 3073 3075 3064 3064 3064 3062 3060 3056 3051 3044 3036 3028 3023 3015 3006 2997 2993 2996 3000 3002 3006 3010 3014 3018 3021 3024 3025 3027 3031 3036 3040 3046
3079 3080 3081 3081 3083 3082 3082 3082 3082 3081 3080 3078 3073 3072 3059 3059 3060 3059 3057 3054 3047 3041 3034 3028 3021 3010 3002 2996 2993 2993 2994 2998 3002 3005 3008 3011 3014 3016 3019 3020 3023 3027 3032 3036
3082 3083 3082 3082 3083 3083 3083 3082 3083 3082 3079 3075 3073 3066 3058 3057 3056 3055 3054 3050 3046 3042 3036 3028 3018 3008 3001 2994 2992 2991 2992 2996 2999 3003 3005 3007 3009 3010 3012 3013 3015 3018 3025 3029
3083 3083 3082 3082 3082 3084 3082 3082 3083 3082 3078 3078 3067 3061 3056 3053 3053 3053 3051 3048 3046 3041 3033 3025 3016 3008 3001 2993 2992 2991 2993 2995 2997 2999 3000 3002 3003 3005 3005 3005 3007 3009 3015 3020
3082 3083 3082 3082 3082 3082 3081 3082 3082 3082 3081 3073 3059 3057 3052 3051 3050 3051 3050 3049 3046 3040 3034 3028 3018 3008 3003 2997 2992 2993 2995 2995 2995 2997 2997 2999 3001 3002 3003 3003 3004 3006 3009 3014
3081 3083 3083 3081 3079 3079 3079 3078 3079 3080 3078 3075 3068 3054 3050 3049 3049 3048 3049 3048 3044 3039 3034 3028 3021 3014 3006 3001 2999 2996 2996 2996 2996 2997 2997 2997 2998 2998 2999 3000 3001 3003 3007 3010
3082 3081 3079 3080 3079 3078 3077 3076 3077 3078 3076 3074 3071 3056 3050 3049 3048 3048 3047 3045 3042 3038 3034 3029 3024 3018 3012 3005 3002 3000 2999 2998 2997 2997 2997 2997 2997 2996 2997 2998 2999 3001 3004 3006
3083 3081 3080 3079 3081 3078 3077 3076 3076 3076 3075 3072 3071 3054 3050 3049 3048 3046 3044 3043 3040 3038 3034 3030 3026 3021 3015 3010 3005 3001 2999 2998 2997 2996 2995 2994 2993 2993 2994 2995 2996 2998 2999 3001
3083 3081 3081 3080 3078 3078 3075 3074 3072 3072 3072 3067 3058 3049 3051 3048 3046 3045 3043 3041 3039 3037 3033 3030 3027 3023 3019 3014 3010 3006 3002 2998 2997 2995 2993 2993 2991 2991 2991 2991 2992 2993 2993 2994
3082 3079 3078 3076 3073 3071 3068 3068 3068 3060 3060 3059 3049 3049 3048 3047 3043 3042 3040 3039 3037 3035 3032 3029 3026 3023 3020 3017 3013 3009 3006 3002 2999 2996 2994 2992 2990 2989 2988 2988 2988 2988 2988 2990
3077 3076 3073 3067 3067 3065 3061 3059 3058 3056 3055 3050 3048 3042 3046 3043 3039 3039 3038 3035 3034 3032 3029 3027 3025 3022 3020 3017 3014 3011 3008 3004 3001 2998 2997 2995 2993 2991 2988 2985 2985 2984 2985 2987
3076 3073 3070 3063 3063 3059 3052 3048 3047 3046 3048 3048 3045 3043 3043 3041 3038 3035 3033 3032 3030 3029 3027 3025 3023 3021 3018 3016 3013 3010 3008 3005 3002 2998 2997 2995 2993 2991 2989 2988 2986 2985 2984 2983
3071 3071 3070 3062 3060 3059 3047 3044 3043 3041 3041 3040 3038 3038 3038 3035 3033 3030 3028 3028 3027 3026 3024 3023 3021 3018 3016 3014 3012 3010 3007 3004 3001 2999 2996 2994 2991 2989 2987 2985 2983 2982 2980 2979
3066 3068 3067 3064 3059 3049 3039 3040 3040 3038 3037 3034 3033 3032 3031 3029 3026 3027 3024 3022 3022 3020 3020 3019 3017 3015 3013 3011 3009 3007 3005 3003 3000 2997 2994 2991 2990 2988 2986 2984 2982 2979 2978 2977
3064 3064 3065 3060 3059 3050 3038 3038 3037 3035 3030 3028 3029 3029 3027 3025 3022 3021 3019 3019 3017 3015 3014 3014 3013 3011 3009 3007 3005 3004 3002 3000 2997 2995 2992 2989 2987 2984 2982 2980 2978 2977 2975 2973
3061 3059 3057 3057 3054 3039 3033 3032 3032 3033 3031 3026 3025 3025 3023 3021 3018 3015 3014 3014 3013 3011 3009 3008 3008 3007 3006 3004 3002 3000 2999 2997 2995 2992 2989 2986 2983 2981 2979 2977 2975 2973 2972 2970
3056 3054 3050 3049 3048 3035 3029 3029 3031 3028 3024 3022 3020 3017 3014 3012 3012 3009 3006 3007 3006 3005 3003 3002 3001 3001 3001 3000 2998 2997 2994 2992 2990 2988 2985 2983 2980 2978 2976 2974 2972 2970 2968 2966
3052 3049 3046 3042 3032 3028 3027 3025 3023 3021 3018 3016 3014 3011 3008 3005 3004 3002 3000 2999 2999 2998 2997 2996 2995 2995 2995 2994 2993 2992 2990 2988 2985 2983 2980 2978 2976 2974 2973 2971 2969 2967 2964 2962
3039 3041 3035 3033 3027 3027 3024 3021 3018 3015 3012 3010 3008 3005 3002 2999 2997 2995 2992 2990 2989 2989 2990 2990 2990 2990 2989 2988 2986 2985 2984 2982 2980 2977 2974 2972 2970 2968 2967 2966 2965 2963 2960 2956
3030 3027 3021 3016 3015 3016 3016 3014 3010 3008 3006 3003 3001 2999 2997 2994 2991 2988 2985 2983 2982 2982 2983 2983 2984 2984 2984 2982 2981 2980 2978 2976 2974 2972 2970 2967 2965 2963 2961 2960 2958 2955 2952 2949
3015 3014 3012 3005 3008 3005 3003 3003 3005 3003 3000 2997 2995 2993 2991 2987 2984 2981 2979 2977 2976 2977 2978 2978 2978 2978 2978 2977 2976 2974 2972 2970 2968 2966 2964 2961 2958 2956 2954 2953 2951 2948 2945 2941